Location: Forst
(46.9333°N, 15.4333°E)
Time: 06:19:51
(UTC+00:00)

Lacrosse 5 rocket - Pass Details

Date: 16 April 2021
Orbit: 460 x 634 km, 57.0° (Epoch: 12 May)

Event Time Altitude Azimuth Distance (km) Brightness Sun altitude
Rises 21:18:28 0° 298° (WNW) 2,747 5.7 -28.5°
Reaches altitude 10° 21:21:04 10° 314° (NW) 1,885 4.9 -28.7°
Maximum altitude 21:24:27 22° 6° (N) 1,313 3.7 -28.9°
Enters shadow 21:26:22 17° 40° (NE) 1,543 3.8 -29.1°
